Simultaneous Nadir Overpasses (SNOs) Predictions

Prediction of SNOs between LANDSAT-8 and NOAA-19 Satellite Orbit:

Table of predicted SNOs for the next 14.0 days since TLE Epoch: 7/31/2021
Index Date (LANDSAT-8) Time (LANDSAT-8) Lat,Lon (LANDSAT-8) SZA (LANDSAT-8 ) Date (NOAA-19) Time (NOAA-19) Lat,Lon (NOAA-19) SZA (NOAA-19 ) Distance(km) Time Diff (sec)
1 07/31/2021 07:25:42 -80.45, -79.66 116.41 07/31/2021 07:25:48 -80.46, -79.55 116.39 2.40 6
2 08/02/2021 12:59:26 80.47, 17.11 64.20 08/02/2021 12:58:51 80.46, 17.19 64.19 1.51 35
3 08/02/2021 13:48:54 -80.44,-175.56 115.85 08/02/2021 13:49:56 -80.46,-175.46 115.80 2.80 62
4 08/04/2021 18:33:11 -80.48, 113.84 115.19 08/04/2021 18:32:05 -80.48, 113.65 115.23 3.58 66
5 08/04/2021 19:22:38 80.45, -78.83 64.77 08/04/2021 19:22:59 80.46, -78.79 64.80 1.37 21
6 08/07/2021 00:56:22 -80.47, 17.91 114.58 08/07/2021 00:56:11 -80.46, 18.02 114.58 2.08 11
7 08/09/2021 06:30:06 80.48, 114.57 66.08 08/09/2021 06:29:14 80.47, 114.64 66.06 1.43 52
8 08/09/2021 07:19:34 -80.46, -78.04 113.96 08/09/2021 07:20:19 -80.47, -78.00 113.93 1.40 45
9 08/11/2021 12:53:18 80.46, 18.59 66.72 08/11/2021 12:53:22 80.48, 18.63 66.73 1.82 4
10 08/13/2021 18:27:03 -80.48, 115.33 112.58 08/13/2021 18:26:35 -80.48, 115.28 112.59 1.08 28



Historial Predications of SNOs between LANDSAT-8 and NOAA-19
